| time (UTC) | temp F | wind direction | speed MPH | gust MPH | rain 1hr in | rain 24hr in | rain mn in | humidity % | barometer mb |
| 20260906045320 | 52 | 340 | 1.0 | 2.0 | 0.00 | 0.00 | 0.00 | 90 | 1020.2 |
| 20260906044320 | 51 | 340 | 1.0 | 2.0 | 0.00 | 0.00 | 0.00 | 90 | 1020.3 |
| 20260906043820 | 51 | 340 | 1.0 | 2.0 | 0.00 | 0.00 | 0.00 | 90 | 1020.3 |
| 20260906043320 | 51 | 340 | 1.0 | 2.0 | 0.00 | 0.00 | 0.00 | 90 | 1020.4 |
| 20260906041821 | 51 | 83 | 1.0 | 2.0 | 0.00 | 0.00 | 0.00 | 90 | 1020.5 |
| 20260906041320 | 52 | 83 | 0.0 | 1.0 | 0.00 | 0.00 | 0.00 | 90 | 1020.5 |
| 20260906040820 | 52 | 83 | 0.0 | 2.0 | 0.00 | 0.00 | 0.00 | 90 | 1020.6 |
| 20260906040320 | 52 | 83 | 0.0 | 1.0 | 0.00 | 0.00 | 0.00 | 90 | 1020.7 |
| 20260906035821 | 52 | 83 | 1.0 | 2.0 | 0.00 | 0.00 | 0.00 | 90 | 1020.7 |
| 20260906033822 | 52 | 83 | 0.0 | 1.0 | 0.00 | 0.00 | 0.00 | 90 | 1020.8 |
| 20260906033320 | 52 | 83 | 1.0 | 3.0 | 0.00 | 0.00 | 0.00 | 90 | 1020.9 |
| 20260906032821 | 52 | 82 | 2.0 | 3.0 | 0.00 | 0.00 | 0.00 | 90 | 1021.0 |
| 20260906031821 | 52 | 51 | 0.0 | 1.0 | 0.00 | 0.00 | 0.00 | 90 | 1021.2 |
| 20260906031321 | 52 | 51 | 1.0 | 2.0 | 0.00 | 0.00 | 0.00 | 90 | 1021.3 |
| 20260906030820 | 52 | 51 | 1.0 | 2.0 | 0.00 | 0.00 | 0.00 | 90 | 1021.3 |
| 20260906030320 | 52 | 39 | 2.0 | 3.0 | 0.00 | 0.00 | 0.00 | 90 | 1021.4 |
| 20260906025820 | 52 | 34 | 2.0 | 3.0 | 0.00 | 0.00 | 0.00 | 90 | 1021.5 |
| 20260906025320 | 52 | 15 | 1.0 | 3.0 | 0.00 | 0.00 | 0.00 | 91 | 1021.5 |
| 20260906024820 | 51 | 15 | 1.0 | 2.0 | 0.00 | 0.00 | 0.00 | 90 | 1021.6 |
| 20260906024320 | 51 | 15 | 0.0 | 2.0 | 0.00 | 0.00 | 0.00 | 89 | 1021.7 |
| 20260906023821 | 52 | 15 | 0.0 | 1.0 | 0.00 | 0.00 | 0.00 | 90 | 1021.8 |
| 20260906023320 | 52 | 15 | 0.0 | 2.0 | 0.00 | 0.00 | 0.00 | 90 | 1021.8 |
| 20260906022820 | 51 | 15 | 1.0 | 3.0 | 0.00 | 0.00 | 0.00 | 90 | 1021.9 |
| 20260906022321 | 51 | 252 | 2.0 | 2.0 | 0.00 | 0.00 | 0.00 | 90 | 1021.9 |
| 20260906021821 | 51 | 252 | 0.0 | 2.0 | 0.00 | 0.00 | 0.00 | 90 | 1021.9 |
| 20260906021320 | 51 | 252 | 1.0 | 1.0 | 0.00 | 0.00 | 0.00 | 90 | 1021.9 |
| 20260906020820 | 51 | 252 | 1.0 | 2.0 | 0.00 | 0.00 | 0.00 | 90 | 1021.9 |
| 20260906020320 | 51 | 252 | 1.0 | 2.0 | 0.00 | 0.00 | 0.00 | 90 | 1021.9 |
| 20260906015821 | 51 | 252 | 1.0 | 2.0 | 0.00 | 0.00 | 0.00 | 90 | 1021.9 |
| 20260906015320 | 51 | 252 | 0.0 | 1.0 | 0.00 | 0.00 | 0.00 | 90 | 1022.0 |
| 20260906014820 | 51 | 252 | 2.0 | 2.0 | 0.00 | 0.00 | 0.00 | 90 | 1022.1 |
| 20260906014320 | 51 | 252 | 1.0 | 2.0 | 0.00 | 0.00 | 0.00 | 90 | 1022.2 |
| 20260906013820 | 51 | 252 | 1.0 | 1.0 | 0.00 | 0.00 | 0.00 | 90 | 1022.3 |
| 20260906013320 | 51 | 252 | 0.0 | 0.0 | 0.00 | 0.00 | 0.00 | 90 | 1022.3 |
| 20260906012820 | 51 | 252 | 0.0 | 0.0 | 0.00 | 0.00 | 0.00 | 90 | 1022.4 |
| 20260906012320 | 51 | 252 | 0.0 | 0.0 | 0.00 | 0.00 | 0.00 | 90 | 1022.5 |
| 20260906011820 | 51 | 252 | 0.0 | 0.0 | 0.00 | 0.00 | 0.00 | 90 | 1022.5 |
| 20260906011320 | 51 | 252 | 0.0 | 0.0 | 0.00 | 0.00 | 0.00 | 89 | 1022.6 |
| 20260906010820 | 51 | 252 | 0.0 | 0.0 | 0.00 | 0.00 | 0.00 | 89 | 1022.6 |
| 20260906004820 | 51 | 252 | 1.0 | 1.0 | 0.00 | 0.00 | 0.00 | 89 | 1022.6 |
| 20260906004320 | 51 | 252 | 0.0 | 1.0 | 0.00 | 0.00 | 0.00 | 89 | 1022.7 |
| 20260906003821 | 51 | 252 | 1.0 | 2.0 | 0.00 | 0.00 | 0.00 | 89 | 1022.7 |
| 20260906002820 | 51 | 252 | 1.0 | 1.0 | 0.00 | 0.00 | 0.00 | 89 | 1022.8 |
| 20260906002319 | 51 | 252 | 1.0 | 2.0 | 0.00 | 0.00 | 0.00 | 89 | 1022.9 |
| 20260906000820 | 51 | 252 | 1.0 | 2.0 | 0.00 | 0.00 | 0.00 | 89 | 1023.0 |
| 20260906000320 | 51 | 252 | 2.0 | 2.0 | 0.00 | 0.00 | 0.00 | 88 | 1023.1 |
| 20260905235820 | 51 | 252 | 2.0 | 2.0 | 0.00 | 0.00 | 0.00 | 88 | 1023.1 |
| 20260905234820 | 51 | 252 | 1.0 | 2.0 | 0.00 | 0.00 | 0.00 | 88 | 1023.3 |
| 20260905234320 | 52 | 252 | 1.0 | 1.0 | 0.00 | 0.00 | 0.00 | 88 | 1023.3 |
| 20260905233820 | 52 | 252 | 1.0 | 1.0 | 0.00 | 0.00 | 0.00 | 87 | 1023.3 |
| 20260905232821 | 52 | 252 | 0.0 | 0.0 | 0.00 | 0.00 | 0.00 | 87 | 1023.5 |
| 20260905232319 | 52 | 252 | 0.0 | 1.0 | 0.00 | 0.00 | 0.00 | 87 | 1023.5 |
| 20260905231820 | 52 | 252 | 1.0 | 1.0 | 0.00 | 0.00 | 0.00 | 87 | 1023.5 |
| 20260905230903 | 52 | 252 | 1.0 | 1.0 | 0.00 | 0.00 | 0.00 | 87 | 1023.4 |
| 20260905230320 | 52 | 252 | 1.0 | 2.0 | 0.00 | 0.00 | 0.00 | 87 | 1023.4 |
| 20260905225820 | 52 | 252 | 1.0 | 2.0 | 0.00 | 0.00 | 0.00 | 86 | 1023.4 |
| 20260905225320 | 53 | 252 | 1.0 | 1.0 | 0.00 | 0.00 | 0.00 | 86 | 1023.3 |
| 20260905224822 | 53 | 252 | 1.0 | 1.0 | 0.00 | 0.00 | 0.00 | 86 | 1023.3 |
| 20260905224320 | 53 | 252 | 1.0 | 1.0 | 0.00 | 0.00 | 0.00 | 86 | 1023.3 |
| 20260905223820 | 53 | 252 | 1.0 | 1.0 | 0.00 | 0.00 | 0.00 | 86 | 1023.3 |
| 20260905223320 | 54 | 252 | 1.0 | 1.0 | 0.00 | 0.00 | 0.00 | 86 | 1023.2 |
| 20260905222820 | 54 | 252 | 1.0 | 1.0 | 0.00 | 0.00 | 0.00 | 86 | 1023.2 |
| 20260905222320 | 54 | 252 | 1.0 | 2.0 | 0.00 | 0.00 | 0.00 | 86 | 1023.3 |
| 20260905221821 | 54 | 252 | 1.0 | 1.0 | 0.00 | 0.00 | 0.00 | 86 | 1023.3 |
| 20260905221320 | 54 | 252 | 1.0 | 2.0 | 0.00 | 0.00 | 0.00 | 85 | 1023.3 |
| 20260905220820 | 54 | 252 | 0.0 | 2.0 | 0.00 | 0.00 | 0.00 | 86 | 1023.3 |
| 20260905220320 | 54 | 252 | 0.0 | 2.0 | 0.00 | 0.00 | 0.00 | 86 | 1023.3 |
| 20260905215821 | 54 | 252 | 0.0 | 2.0 | 0.00 | 0.00 | 0.00 | 85 | 1023.3 |
| 20260905215320 | 54 | 252 | 0.0 | 1.0 | 0.00 | 0.00 | 0.00 | 85 | 1023.3 |
| 20260905214821 | 54 | 252 | 1.0 | 1.0 | 0.00 | 0.00 | 0.00 | 85 | 1023.3 |
| 20260905214320 | 54 | 252 | 1.0 | 1.0 | 0.00 | 0.00 | 0.00 | 85 | 1023.4 |
| 20260905213819 | 54 | 252 | 1.0 | 1.0 | 0.00 | 0.00 | 0.00 | 84 | 1023.4 |
| 20260905213320 | 54 | 252 | 0.0 | 2.0 | 0.00 | 0.00 | 0.00 | 84 | 1023.5 |
| 20260905212821 | 55 | 252 | 0.0 | 1.0 | 0.00 | 0.00 | 0.00 | 84 | 1023.5 |
| 20260905212320 | 55 | 252 | 1.0 | 2.0 | 0.00 | 0.00 | 0.00 | 83 | 1023.5 |
| 20260905211822 | 55 | 252 | 0.0 | 2.0 | 0.00 | 0.00 | 0.00 | 83 | 1023.4 |
| 20260905210820 | 55 | 252 | 0.0 | 2.0 | 0.00 | 0.00 | 0.00 | 83 | 1023.6 |
| 20260905210320 | 55 | 252 | 0.0 | 1.0 | 0.00 | 0.00 | 0.00 | 82 | 1023.6 |
| 20260905205820 | 56 | 252 | 0.0 | 2.0 | 0.00 | 0.00 | 0.00 | 82 | 1023.6 |
| 20260905204820 | 56 | 252 | 1.0 | 2.0 | 0.00 | 0.00 | 0.00 | 82 | 1023.6 |
| 20260905204320 | 56 | 252 | 1.0 | 2.0 | 0.00 | 0.00 | 0.00 | 81 | 1023.6 |
| 20260905203320 | 56 | 252 | 0.0 | 2.0 | 0.00 | 0.00 | 0.00 | 81 | 1023.5 |
| 20260905202820 | 56 | 252 | 0.0 | 2.0 | 0.00 | 0.00 | 0.00 | 81 | 1023.4 |
| 20260905202320 | 56 | 252 | 1.0 | 2.0 | 0.00 | 0.00 | 0.00 | 81 | 1023.4 |
| 20260905201320 | 56 | 252 | 0.0 | 2.0 | 0.00 | 0.00 | 0.00 | 81 | 1023.4 |
| 20260905200820 | 56 | 252 | 0.0 | 1.0 | 0.00 | 0.00 | 0.00 | 81 | 1023.4 |
| 20260905200319 | 56 | 252 | 0.0 | 0.0 | 0.00 | 0.00 | 0.00 | 81 | 1023.3 |
| 20260905195820 | 56 | 252 | 0.0 | 0.0 | 0.00 | 0.00 | 0.00 | 81 | 1023.3 |
| 20260905195320 | 56 | 252 | 0.0 | 2.0 | 0.00 | 0.00 | 0.00 | 81 | 1023.3 |
| 20260905194820 | 56 | 252 | 0.0 | 1.0 | 0.00 | 0.00 | 0.00 | 80 | 1023.3 |
| 20260905193820 | 56 | 252 | 0.0 | 0.0 | 0.00 | 0.00 | 0.00 | 78 | 1023.3 |
| 20260905193320 | 57 | 252 | 0.0 | 2.0 | 0.00 | 0.00 | 0.00 | 78 | 1023.2 |
| 20260905191820 | 58 | 252 | 1.0 | 1.0 | 0.00 | 0.00 | 0.00 | 77 | 1022.9 |
| 20260905190320 | 58 | 252 | 0.0 | 2.0 | 0.00 | 0.00 | 0.00 | 76 | 1022.7 |
| 20260905185820 | 58 | 252 | 1.0 | 3.0 | 0.00 | 0.00 | 0.00 | 75 | 1022.9 |
| 20260905185320 | 59 | 252 | 1.0 | 3.0 | 0.00 | 0.00 | 0.00 | 75 | 1022.9 |
| 20260905184820 | 59 | 252 | 1.0 | 2.0 | 0.00 | 0.00 | 0.00 | 74 | 1022.8 |
| 20260905184320 | 59 | 252 | 2.0 | 3.0 | 0.00 | 0.00 | 0.00 | 74 | 1023.0 |
| 20260905183819 | 59 | 252 | 1.0 | 5.0 | 0.00 | 0.00 | 0.00 | 74 | 1023.0 |
| 20260905183320 | 59 | 253 | 1.0 | 3.0 | 0.00 | 0.00 | 0.00 | 73 | 1023.0 |
| 20260905182820 | 59 | 253 | 2.0 | 3.0 | 0.00 | 0.00 | 0.00 | 73 | 1023.0 |
| 20260905182320 | 59 | 250 | 1.0 | 3.0 | 0.00 | 0.00 | 0.00 | 72 | 1022.9 |
| 20260905181819 | 59 | 264 | 1.0 | 5.0 | 0.00 | 0.00 | 0.00 | 72 | 1022.8 |
| 20260905181319 | 60 | 264 | 1.0 | 3.0 | 0.00 | 0.00 | 0.00 | 72 | 1022.8 |
| 20260905180822 | 60 | 273 | 1.0 | 2.0 | 0.00 | 0.00 | 0.00 | 71 | 1022.8 |
| 20260905180320 | 60 | 282 | 1.0 | 3.0 | 0.00 | 0.00 | 0.00 | 71 | 1023.0 |
| 20260905175820 | 60 | 256 | 2.0 | 3.0 | 0.00 | 0.00 | 0.00 | 71 | 1023.1 |
| 20260905175320 | 60 | 251 | 2.0 | 7.0 | 0.00 | 0.00 | 0.00 | 70 | 1023.2 |
| 20260905174819 | 60 | 252 | 3.0 | 8.0 | 0.00 | 0.00 | 0.00 | 70 | 1023.0 |
| 20260905174320 | 60 | 261 | 3.0 | 8.0 | 0.00 | 0.00 | 0.00 | 69 | 1023.0 |
| 20260905173820 | 60 | 260 | 2.0 | 6.0 | 0.00 | 0.00 | 0.00 | 69 | 1023.0 |
| 20260905173319 | 60 | 280 | 3.0 | 6.0 | 0.00 | 0.00 | 0.00 | 69 | 1023.0 |
| 20260905172820 | 60 | 247 | 3.0 | 6.0 | 0.00 | 0.00 | 0.00 | 69 | 1022.9 |
| 20260905171820 | 61 | 252 | 4.0 | 7.0 | 0.00 | 0.00 | 0.00 | 68 | 1023.0 |
| 20260905171319 | 61 | 252 | 3.0 | 6.0 | 0.00 | 0.00 | 0.00 | 69 | 1023.0 |
| 20260905170819 | 61 | 236 | 2.0 | 5.0 | 0.00 | 0.00 | 0.00 | 68 | 1022.8 |
| 20260905170319 | 61 | 242 | 3.0 | 7.0 | 0.00 | 0.00 | 0.00 | 67 | 1022.9 |
| 20260905165820 | 62 | 266 | 4.0 | 8.0 | 0.00 | 0.00 | 0.00 | 66 | 1022.9 |
| 20260905165319 | 62 | 270 | 3.0 | 7.0 | 0.00 | 0.00 | 0.00 | 65 | 1022.9 |
| 20260905164820 | 62 | 240 | 3.0 | 7.0 | 0.00 | 0.00 | 0.00 | 65 | 1022.9 |
| 20260905164320 | 62 | 245 | 2.0 | 7.0 | 0.00 | 0.00 | 0.00 | 64 | 1022.8 |
| 20260905163819 | 63 | 254 | 4.0 | 8.0 | 0.00 | 0.00 | 0.00 | 64 | 1022.7 |
| 20260905163319 | 63 | 246 | 5.0 | 9.0 | 0.00 | 0.00 | 0.00 | 66 | 1022.7 |
| 20260905162821 | 62 | 250 | 3.0 | 7.0 | 0.00 | 0.00 | 0.00 | 67 | 1022.6 |
| 20260905162319 | 62 | 243 | 6.0 | 9.0 | 0.00 | 0.00 | 0.00 | 66 | 1022.6 |
| 20260905161820 | 62 | 239 | 3.0 | 7.0 | 0.00 | 0.00 | 0.00 | 66 | 1022.6 |
| 20260905161321 | 63 | 240 | 5.0 | 9.0 | 0.00 | 0.00 | 0.00 | 65 | 1022.5 |
| 20260905160819 | 62 | 250 | 5.0 | 12.0 | 0.00 | 0.00 | 0.00 | 66 | 1022.5 |
| 20260905160320 | 62 | 251 | 6.0 | 12.0 | 0.00 | 0.00 | 0.00 | 67 | 1022.4 |
| 20260905155820 | 62 | 252 | 6.0 | 10.0 | 0.00 | 0.00 | 0.00 | 66 | 1022.4 |
| 20260905155319 | 63 | 251 | 4.0 | 9.0 | 0.00 | 0.00 | 0.00 | 64 | 1022.4 |
| 20260905154820 | 64 | 249 | 6.0 | 12.0 | 0.00 | 0.00 | 0.00 | 63 | 1022.4 |
| 20260905154320 | 63 | 243 | 4.0 | 9.0 | 0.00 | 0.00 | 0.00 | 66 | 1022.3 |
| 20260905153819 | 62 | 243 | 4.0 | 9.0 | 0.00 | 0.00 | 0.00 | 67 | 1022.2 |
| 20260905153320 | 61 | 241 | 5.0 | 9.0 | 0.00 | 0.00 | 0.00 | 69 | 1022.4 |
| 20260905152820 | 61 | 257 | 5.0 | 9.0 | 0.00 | 0.00 | 0.00 | 69 | 1022.2 |
| 20260905152320 | 61 | 257 | 4.0 | 9.0 | 0.00 | 0.00 | 0.00 | 71 | 1022.1 |
| 20260905151820 | 61 | 242 | 5.0 | 14.0 | 0.00 | 0.00 | 0.00 | 71 | 1022.0 |
| 20260905150820 | 61 | 242 | 8.0 | 13.0 | 0.00 | 0.00 | 0.00 | 70 | 1022.0 |
| 20260905150319 | 61 | 260 | 5.0 | 12.0 | 0.00 | 0.00 | 0.00 | 70 | 1022.0 |
| 20260905145819 | 61 | 249 | 7.0 | 14.0 | 0.00 | 0.00 | 0.00 | 71 | 1022.1 |
| 20260905145319 | 62 | 246 | 5.0 | 9.0 | 0.00 | 0.00 | 0.00 | 71 | 1022.2 |
| 20260905144820 | 62 | 262 | 4.0 | 9.0 | 0.00 | 0.00 | 0.00 | 72 | 1022.1 |
| 20260905144321 | 62 | 247 | 3.0 | 9.0 | 0.00 | 0.00 | 0.00 | 71 | 1022.1 |
| 20260905143820 | 62 | 264 | 3.0 | 10.0 | 0.00 | 0.00 | 0.00 | 70 | 1022.1 |
| 20260905143319 | 62 | 254 | 5.0 | 13.0 | 0.00 | 0.00 | 0.00 | 69 | 1022.0 |
| 20260905142819 | 62 | 244 | 7.0 | 15.0 | 0.00 | 0.00 | 0.00 | 70 | 1022.0 |
| 20260905141820 | 62 | 258 | 7.0 | 14.0 | 0.00 | 0.00 | 0.00 | 69 | 1021.9 |
| 20260905141320 | 62 | 263 | 6.0 | 12.0 | 0.00 | 0.00 | 0.00 | 70 | 1022.0 |
| 20260905140820 | 62 | 262 | 5.0 | 8.0 | 0.00 | 0.00 | 0.00 | 69 | 1022.0 |
| 20260905140320 | 63 | 275 | 5.0 | 10.0 | 0.00 | 0.00 | 0.00 | 67 | 1022.0 |
| 20260905135820 | 63 | 280 | 3.0 | 9.0 | 0.00 | 0.00 | 0.00 | 67 | 1021.9 |
| 20260905135319 | 63 | 250 | 6.0 | 10.0 | 0.00 | 0.00 | 0.00 | 67 | 1021.8 |
| 20260905134819 | 63 | 254 | 6.0 | 10.0 | 0.00 | 0.00 | 0.00 | 67 | 1021.8 |
| 20260905134319 | 62 | 246 | 8.0 | 17.0 | 0.00 | 0.00 | 0.00 | 68 | 1021.8 |
| 20260905133819 | 62 | 251 | 8.0 | 15.0 | 0.00 | 0.00 | 0.00 | 69 | 1021.8 |
| 20260905133319 | 62 | 255 | 8.0 | 12.0 | 0.00 | 0.00 | 0.00 | 70 | 1021.8 |
| 20260905132820 | 62 | 254 | 4.0 | 10.0 | 0.00 | 0.00 | 0.00 | 71 | 1021.8 |
| 20260905132320 | 62 | 244 | 7.0 | 15.0 | 0.00 | 0.00 | 0.00 | 70 | 1021.7 |
| 20260905131319 | 62 | 245 | 5.0 | 12.0 | 0.00 | 0.00 | 0.00 | 70 | 1021.6 |
| 20260905130820 | 61 | 266 | 6.0 | 14.0 | 0.00 | 0.00 | 0.00 | 71 | 1021.6 |
| 20260905130319 | 61 | 239 | 7.0 | 12.0 | 0.00 | 0.00 | 0.00 | 70 | 1021.6 |
| 20260905125819 | 61 | 241 | 7.0 | 13.0 | 0.00 | 0.00 | 0.00 | 70 | 1021.6 |
| 20260905125319 | 62 | 251 | 5.0 | 10.0 | 0.00 | 0.00 | 0.00 | 73 | 1021.6 |
| 20260905124820 | 61 | 244 | 3.0 | 9.0 | 0.00 | 0.00 | 0.00 | 74 | 1021.6 |
| 20260905124319 | 61 | 241 | 3.0 | 12.0 | 0.00 | 0.00 | 0.00 | 75 | 1021.5 |
| 20260905123819 | 61 | 244 | 5.0 | 10.0 | 0.00 | 0.00 | 0.00 | 74 | 1021.4 |
| 20260905122319 | 61 | 259 | 7.0 | 14.0 | 0.00 | 0.00 | 0.00 | 71 | 1021.5 |
| 20260905121820 | 61 | 245 | 7.0 | 14.0 | 0.00 | 0.00 | 0.00 | 70 | 1021.3 |
| 20260905121321 | 62 | 264 | 6.0 | 12.0 | 0.00 | 0.00 | 0.00 | 71 | 1021.3 |
| 20260905120820 | 61 | 264 | 5.0 | 12.0 | 0.00 | 0.00 | 0.00 | 70 | 1021.2 |
| 20260905120319 | 62 | 250 | 7.0 | 12.0 | 0.00 | 0.00 | 0.00 | 69 | 1021.1 |
| 20260905115820 | 62 | 249 | 6.0 | 15.0 | 0.00 | 0.00 | 0.00 | 69 | 1020.9 |
| 20260905115320 | 63 | 253 | 6.0 | 12.0 | 0.00 | 0.00 | 0.00 | 70 | 1020.9 |
| 20260905114819 | 62 | 240 | 6.0 | 13.0 | 0.00 | 0.00 | 0.00 | 70 | 1020.9 |
| 20260905113319 | 62 | 232 | 7.0 | 15.0 | 0.00 | 0.02 | 0.00 | 73 | 1020.9 |
| 20260905112820 | 62 | 236 | 8.0 | 13.0 | 0.00 | 0.02 | 0.00 | 72 | 1020.9 |
| 20260905111819 | 61 | 247 | 3.0 | 7.0 | 0.00 | 0.02 | 0.00 | 76 | 1020.9 |
| 20260905111319 | 60 | 255 | 5.0 | 12.0 | 0.00 | 0.02 | 0.00 | 76 | 1021.0 |
| 20260905110320 | 61 | 242 | 9.0 | 15.0 | 0.00 | 0.02 | 0.00 | 72 | 1021.0 |
| 20260905105820 | 62 | 245 | 7.0 | 13.0 | 0.00 | 0.02 | 0.00 | 71 | 1020.9 |
| 20260905105320 | 62 | 234 | 7.0 | 12.0 | 0.00 | 0.02 | 0.00 | 71 | 1020.8 |
| 20260905104819 | 61 | 239 | 7.0 | 12.0 | 0.00 | 0.02 | 0.00 | 71 | 1020.7 |
| 20260905102820 | 62 | 222 | 4.0 | 10.0 | 0.00 | 0.02 | 0.00 | 69 | 1020.6 |
| 20260905101320 | 61 | 241 | 7.0 | 14.0 | 0.00 | 0.02 | 0.00 | 70 | 1020.6 |
| 20260905100819 | 61 | 249 | 7.0 | 13.0 | 0.00 | 0.02 | 0.00 | 69 | 1020.4 |
| 20260905100319 | 61 | 269 | 5.0 | 12.0 | 0.00 | 0.02 | 0.00 | 72 | 1020.2 |
| 20260905095819 | 60 | 256 | 7.0 | 14.0 | 0.00 | 0.02 | 0.00 | 72 | 1020.2 |
| 20260905095319 | 60 | 248 | 6.0 | 12.0 | 0.00 | 0.02 | 0.00 | 73 | 1020.2 |
| 20260905094820 | 60 | 264 | 6.0 | 14.0 | 0.00 | 0.02 | 0.00 | 73 | 1020.3 |
| 20260905093819 | 60 | 263 | 7.0 | 12.0 | 0.00 | 0.02 | 0.00 | 73 | 1020.2 |
| 20260905093320 | 60 | 251 | 7.0 | 17.0 | 0.00 | 0.02 | 0.00 | 73 | 1020.1 |
| 20260905092820 | 60 | 245 | 6.0 | 13.0 | 0.00 | 0.02 | 0.00 | 73 | 1020.1 |
| 20260905090819 | 60 | 254 | 7.0 | 13.0 | 0.00 | 0.02 | 0.00 | 74 | 1019.8 |
| 20260905090319 | 60 | 247 | 7.0 | 12.0 | 0.00 | 0.02 | 0.00 | 75 | 1019.7 |
| 20260905085820 | 59 | 248 | 5.0 | 10.0 | 0.00 | 0.02 | 0.00 | 76 | 1019.6 |
| 20260905085319 | 59 | 263 | 8.0 | 14.0 | 0.00 | 0.02 | 0.00 | 76 | 1019.6 |
| 20260905084820 | 58 | 251 | 8.0 | 12.0 | 0.00 | 0.02 | 0.00 | 76 | 1019.6 |
| 20260905083820 | 59 | 244 | 8.0 | 15.0 | 0.00 | 0.02 | 0.00 | 77 | 1019.4 |
| 20260905082820 | 58 | 251 | 7.0 | 16.0 | 0.00 | 0.02 | 0.00 | 79 | 1019.2 |
| 20260905082319 | 58 | 258 | 6.0 | 15.0 | 0.00 | 0.02 | 0.00 | 80 | 1019.2 |
| 20260905081819 | 57 | 248 | 7.0 | 13.0 | 0.00 | 0.02 | 0.00 | 80 | 1019.2 |
| 20260905081319 | 57 | 242 | 6.0 | 10.0 | 0.00 | 0.02 | 0.00 | 81 | 1019.3 |
| 20260905080819 | 57 | 242 | 5.0 | 12.0 | 0.00 | 0.02 | 0.00 | 81 | 1019.3 |
| 20260905080320 | 57 | 240 | 5.0 | 8.0 | 0.00 | 0.02 | 0.00 | 81 | 1019.2 |
| 20260905075819 | 56 | 241 | 5.0 | 9.0 | 0.00 | 0.02 | 0.00 | 81 | 1019.2 |
| 20260905075319 | 56 | 240 | 3.0 | 7.0 | 0.00 | 0.02 | 0.00 | 82 | 1019.1 |
| 20260905074820 | 56 | 251 | 4.0 | 8.0 | 0.00 | 0.02 | 0.00 | 82 | 1019.0 |
| 20260905074319 | 56 | 249 | 5.0 | 12.0 | 0.00 | 0.02 | 0.00 | 82 | 1018.8 |
| 20260905072318 | 56 | 260 | 4.0 | 7.0 | 0.00 | 0.02 | 0.00 | 84 | 1018.6 |
| 20260905071819 | 55 | 249 | 2.0 | 6.0 | 0.00 | 0.02 | 0.00 | 84 | 1018.6 |
| 20260905071319 | 55 | 254 | 3.0 | 7.0 | 0.00 | 0.02 | 0.00 | 84 | 1018.5 |
| 20260905070319 | 55 | 249 | 6.0 | 12.0 | 0.00 | 0.02 | 0.00 | 84 | 1018.5 |
| 20260905065820 | 55 | 250 | 3.0 | 5.0 | 0.00 | 0.02 | 0.00 | 84 | 1018.4 |
| 20260905065320 | 55 | 235 | 3.0 | 6.0 | 0.00 | 0.02 | 0.00 | 84 | 1018.3 |
| 20260905064820 | 55 | 256 | 3.0 | 6.0 | 0.00 | 0.02 | 0.00 | 84 | 1018.2 |
| 20260905063819 | 55 | 252 | 4.0 | 8.0 | 0.00 | 0.02 | 0.00 | 84 | 1018.1 |
| 20260905063318 | 55 | 237 | 3.0 | 8.0 | 0.00 | 0.02 | 0.00 | 84 | 1017.9 |
| 20260905062820 | 55 | 245 | 6.0 | 9.0 | 0.00 | 0.02 | 0.00 | 84 | 1017.9 |
| 20260905062319 | 55 | 244 | 3.0 | 10.0 | 0.00 | 0.02 | 0.00 | 84 | 1017.9 |
| 20260905061819 | 55 | 226 | 2.0 | 5.0 | 0.00 | 0.02 | 0.00 | 84 | 1017.9 |
| 20260905061320 | 54 | 243 | 3.0 | 8.0 | 0.00 | 0.02 | 0.00 | 85 | 1017.7 |
| 20260905060819 | 54 | 275 | 3.0 | 10.0 | 0.00 | 0.02 | 0.00 | 85 | 1017.7 |
| 20260905060320 | 54 | 248 | 2.0 | 10.0 | 0.00 | 0.02 | 0.00 | 85 | 1017.6 |
| 20260905055819 | 54 | 252 | 2.0 | 7.0 | 0.00 | 0.02 | 0.00 | 85 | 1017.5 |
| 20260905055319 | 54 | 251 | 3.0 | 5.0 | 0.00 | 0.02 | 0.00 | 85 | 1017.4 |
| 20260905054819 | 54 | 246 | 2.0 | 6.0 | 0.00 | 0.02 | 0.00 | 84 | 1017.3 |
| 20260905054319 | 55 | 257 | 2.0 | 3.0 | 0.00 | 0.02 | 0.00 | 84 | 1017.3 |
| 20260905053819 | 55 | 246 | 2.0 | 6.0 | 0.00 | 0.02 | 0.00 | 84 | 1017.3 |
| 20260905052819 | 55 | 251 | 5.0 | 9.0 | 0.00 | 0.02 | 0.00 | 83 | 1017.1 |
| 20260905052319 | 55 | 280 | 2.0 | 9.0 | 0.00 | 0.02 | 0.00 | 83 | 1017.1 |
| 20260905051819 | 55 | 258 | 4.0 | 9.0 | 0.00 | 0.02 | 0.00 | 83 | 1017.1 |
| 20260905051319 | 55 | 260 | 3.0 | 8.0 | 0.00 | 0.02 | 0.00 | 81 | 1017.0 |
| 20260905050819 | 55 | 230 | 2.0 | 9.0 | 0.00 | 0.02 | 0.00 | 81 | 1016.9 |
| 20260905050318 | 55 | 269 | 3.0 | 7.0 | 0.00 | 0.02 | 0.00 | 82 | 1016.8 |
| 20260905045819 | 55 | 242 | 1.0 | 8.0 | 0.00 | 0.02 | 0.00 | 82 | 1016.8 |